Location: Unspecified
(35.6961°N, 0.0000°E)
Time: 00:34:51
(UTC+00:00)

ISS - Visible Passes

Search period start: 21 April 2019 00:00
Search period end: 01 May 2019 00:00
Orbit: 408 x 410 km, 51.6° (Epoch: 21 April)

Date Brightness Start Highest point End Pass type
(mag) Time Alt. Az. Time Alt. Az. Time Alt. Az.
25 Apr -0.7 04:20:34 10° SE 04:20:45 10° SE 04:20:56 10° ESE visible
27 Apr -2.2 04:12:28 10° SSW 04:15:21 29° SE 04:18:15 10° ENE visible
28 Apr -1.3 03:23:56 14° SE 03:24:40 15° SE 03:26:35 10° E visible
29 Apr -3.9 04:08:02 22° SW 04:10:03 89° WNW 04:13:23 10° NE visible
30 Apr -3.0 03:19:18 42° SE 03:19:18 42° SE 03:22:24 10° ENE visible
